Home > Weather > Kansas City > Past weeks

Flag for USA Past Weather in Kansas City, Missouri, USA — Yesterday and Last 2 Weeks

Now
76 °F

Passing clouds.


Feels Like: 77 °F
Forecast: 67 / 78 °F
Wind: 5 mph from East

Location: Kansas City Downtown Airport

Current Time: Jun 30, 2016 at 11:25:37 PM

Latest Report: Jun 30, 2016 at 10:54 PM


Visibility: 10 mi

Pressure: 29.96 "Hg

Humidity: 72%

Dew Point: 66 °F

Location of Kansas CityLocation

Past Weather in Kansas City — Graph

°F

Kansas City Temperature Yesterday

Maximum temperature yesterday: 87 °F (at 5:54 PM)
Minimum temperature yesterday: 70 °F (at 4:54 AM)
Average temperature yesterday: 79 °F

High & Low Weather Summary for the Past Weeks

 TemperatureHumidityPressure
High100 °F (Jun 22, 3:54 PM)93% (Jun 27, 5:54 AM)30.22 "Hg (Jun 27, 5:54 AM)
Low67 °F (Jun 28, 10:54 AM)23% (Jun 23, 2:54 PM)29.71 "Hg (Jun 22, 6:54 PM)
Average83 °F59%29.98 "Hg
* Reported Jun 15 9:54 PM — Jun 30 9:54 PM, Kansas City, Weather by CustomWeather, © 2016

Note: Actual official high and low records may vary slightly from our data, if they occured in-between our weather recording intervals... More about our weather records

Advertising

Kansas City Weather History for the Previous 24 Hours

Scroll right to see more
 ConditionsComfort  
Time TempWeatherWind HumidityBarometerVisibility
9:54 PM
Thu, Jun 30
78 °FPassing clouds.10 mph64%29.94 "Hg10 mi
8:54 PM82 °FSunny.3 mph67%29.89 "Hg10 mi
7:54 PM84 °FSunny.5 mph63%29.89 "Hg10 mi
6:54 PM85 °FSunny.6 mph59%29.87 "Hg10 mi
5:54 PM86 °FSunny.5 mph57%29.87 "Hg10 mi
4:54 PM79 °FSunny.3 mph67%29.88 "Hg10 mi
4:01 PM78 °FPassing clouds.6 mph64%29.90 "Hg10 mi
3:54 PM77 °FThundershowers. Scattered clouds.8 mph69%29.87 "Hg10 mi
2:54 PM86 °FScattered clouds.3 mph53%29.87 "Hg10 mi
1:54 PM88 °FSunny.5 mph54%29.88 "Hg10 mi
12:54 PM87 °FSunny.3 mph53%29.89 "Hg10 mi
11:54 AM87 °FSunny.8 mph53%29.90 "Hg10 mi
10:54 AM83 °FSunny.9 mph61%29.90 "Hg10 mi
9:54 AM83 °FScattered clouds.8 mph59%29.91 "Hg10 mi
8:54 AM81 °FSunny.6 mph60%29.90 "Hg10 mi
7:54 AM77 °FSunny.No wind71%29.91 "Hg10 mi
6:54 AM75 °FPassing clouds.5 mph74%29.90 "Hg10 mi
5:54 AM74 °FClear.7 mph74%29.89 "Hg10 mi
4:54 AM75 °FClear.9 mph69%29.90 "Hg10 mi
3:54 AM77 °FPassing clouds.10 mph64%29.91 "Hg10 mi
2:54 AM75 °FPassing clouds.No wind74%29.92 "Hg10 mi
1:54 AM77 °FClear.6 mph69%29.95 "Hg10 mi
12:54 AM76 °FClear.3 mph69%29.96 "Hg10 mi
11:54 PM
Wed, Jun 29
78 °FPassing clouds.8 mph66%29.96 "Hg10 mi
Weather by CustomWeather, © 2016

See weather overviewHow to use our weather pages